Time,TemperatureF,DewpointF,PressureIn,WindDirection,WindDirectionDegrees,WindSpeedMPH,WindSpeedGustMPH,Humidity,HourlyPrecipIn,Conditions,Clouds,dailyrainin,SoftwareType,DateUTC
2013-10-06 00:00:00,67.1,62.1,29.81,South,180,6.0,18.0,84,0.00,,,-99.99,WeatherLink 5.6,2013-10-06 04:00:00,
2013-10-06 00:30:00,66.7,62.0,29.80,South,180,6.0,19.0,85,0.00,,,-99.99,WeatherLink 5.6,2013-10-06 04:30:00,
2013-10-06 01:00:00,66.1,61.8,29.81,South,180,5.0,18.0,86,0.00,,,-99.99,WeatherLink 5.6,2013-10-06 05:00:00,
2013-10-06 01:30:00,65.2,61.6,29.80,South,180,4.0,12.0,88,0.00,,,-99.99,WeatherLink 5.6,2013-10-06 05:30:00,
2013-10-06 02:00:00,64.6,61.3,29.80,South,180,3.0,10.0,89,0.00,,,-99.99,WeatherLink 5.6,2013-10-06 06:00:00,
2013-10-06 02:30:00,64.2,60.9,29.79,South,180,2.0,12.0,89,0.00,,,-99.99,WeatherLink 5.6,2013-10-06 06:30:00,
2013-10-06 03:00:00,63.5,60.5,29.79,South,180,2.0,9.0,90,0.00,,,-99.99,WeatherLink 5.6,2013-10-06 07:00:00,
2013-10-06 03:30:00,62.9,60.2,29.78,South,180,2.0,7.0,91,0.00,,,-99.99,WeatherLink 5.6,2013-10-06 07:30:00,
2013-10-06 04:00:00,64.3,60.7,29.76,South,180,5.0,15.0,88,0.00,,,-99.99,WeatherLink 5.6,2013-10-06 08:00:00,
2013-10-06 04:30:00,64.4,60.1,29.76,South,180,6.0,16.0,86,0.00,,,-99.99,WeatherLink 5.6,2013-10-06 08:30:00,
2013-10-06 05:00:00,64.3,60.0,29.76,South,180,5.0,17.0,86,0.00,,,-99.99,WeatherLink 5.6,2013-10-06 09:00:00,
2013-10-06 05:30:00,64.4,59.8,29.76,South,180,6.0,20.0,85,0.00,,,-99.99,WeatherLink 5.6,2013-10-06 09:30:00,
2013-10-06 06:00:00,64.1,59.8,29.76,South,180,7.0,17.0,86,0.00,,,-99.99,WeatherLink 5.6,2013-10-06 10:00:00,
2013-10-06 06:30:00,64.1,59.5,29.78,South,180,6.0,15.0,85,0.00,,,-99.99,WeatherLink 5.6,2013-10-06 10:30:00,
2013-10-06 07:00:00,64.1,59.5,29.79,South,180,6.0,17.0,85,0.00,,,-99.99,WeatherLink 5.6,2013-10-06 11:00:00,
2013-10-06 07:30:00,63.5,59.2,29.79,South,180,5.0,15.0,86,0.00,,,-99.99,WeatherLink 5.6,2013-10-06 11:30:00,
2013-10-06 08:00:00,64.7,60.1,29.78,South,180,5.0,15.0,85,0.00,,,-99.99,WeatherLink 5.6,2013-10-06 12:00:00,
2013-10-06 08:30:00,66.1,60.8,29.78,South,180,3.0,14.0,83,0.00,,,-99.99,WeatherLink 5.6,2013-10-06 12:30:00,
2013-10-06 09:00:00,67.1,61.1,29.78,South,180,4.0,14.0,81,0.00,,,-99.99,WeatherLink 5.6,2013-10-06 13:00:00,
2013-10-06 09:30:00,68.4,62.0,29.79,South,180,4.0,16.0,80,0.00,,,-99.99,WeatherLink 5.6,2013-10-06 13:30:00,
2013-10-06 10:00:00,69.0,62.2,29.78,South,180,5.0,21.0,79,0.00,,,-99.99,WeatherLink 5.6,2013-10-06 14:00:00,
2013-10-06 10:30:00,70.0,63.9,29.78,South,180,4.0,16.0,81,0.00,,,-99.99,WeatherLink 5.6,2013-10-06 14:30:00,
2013-10-06 11:00:00,70.5,63.3,29.78,South,180,4.0,14.0,78,0.00,,,-99.99,WeatherLink 5.6,2013-10-06 15:00:00,
2013-10-06 11:30:00,71.5,62.8,29.78,South,180,5.0,17.0,74,0.00,,,-99.99,WeatherLink 5.6,2013-10-06 15:30:00,
2013-10-06 12:00:00,72.3,63.5,29.77,South,180,6.0,20.0,74,0.00,,,-99.99,WeatherLink 5.6,2013-10-06 16:00:00,
2013-10-06 12:30:00,72.6,63.1,29.77,South,180,4.0,19.0,72,0.00,,,-99.99,WeatherLink 5.6,2013-10-06 16:30:00,
2013-10-06 13:00:00,73.5,62.7,29.75,South,180,4.0,20.0,69,0.00,,,-99.99,WeatherLink 5.6,2013-10-06 17:00:00,
2013-10-06 13:30:00,73.9,63.1,29.73,South,180,5.0,16.0,69,0.00,,,-99.99,WeatherLink 5.6,2013-10-06 17:30:00,
2013-10-06 14:00:00,74.2,63.8,29.71,South,180,4.0,18.0,70,0.00,,,-99.99,WeatherLink 5.6,2013-10-06 18:00:00,
2013-10-06 14:30:00,75.5,64.6,29.69,South,180,4.0,17.0,69,0.00,,,-99.99,WeatherLink 5.6,2013-10-06 18:30:00,
2013-10-06 15:00:00,75.3,64.0,29.69,South,180,3.0,13.0,68,0.00,,,-99.99,WeatherLink 5.6,2013-10-06 19:00:00,
2013-10-06 15:30:00,75.4,64.5,29.68,South,180,3.0,17.0,69,0.00,,,-99.99,WeatherLink 5.6,2013-10-06 19:30:00,
2013-10-06 16:00:00,75.2,63.1,29.67,South,180,3.0,14.0,66,0.00,,,-99.99,WeatherLink 5.6,2013-10-06 20:00:00,
2013-10-06 16:30:00,75.7,61.3,29.66,South,180,4.0,18.0,61,0.00,,,-99.99,WeatherLink 5.6,2013-10-06 20:30:00,
2013-10-06 17:00:00,75.2,61.7,29.65,South,180,4.0,17.0,63,0.00,,,-99.99,WeatherLink 5.6,2013-10-06 21:00:00,
2013-10-06 17:30:00,73.8,61.3,29.65,South,180,3.0,11.0,65,0.00,,,-99.99,WeatherLink 5.6,2013-10-06 21:30:00,
2013-10-06 18:00:00,72.5,61.3,29.64,South,180,4.0,11.0,68,0.00,,,-99.99,WeatherLink 5.6,2013-10-06 22:00:00,
2013-10-06 18:30:00,70.9,61.0,29.64,South,180,4.0,12.0,71,0.00,,,-99.99,WeatherLink 5.6,2013-10-06 22:30:00,
2013-10-06 19:00:00,70.4,60.9,29.64,South,180,4.0,14.0,72,0.00,,,-99.99,WeatherLink 5.6,2013-10-06 23:00:00,
2013-10-06 19:30:00,69.2,60.2,29.63,SSE,157,4.0,16.0,73,0.00,,,-99.99,WeatherLink 5.6,2013-10-06 23:30:00,
2013-10-06 20:00:00,68.6,60.4,29.64,SSE,157,4.0,13.0,75,0.00,,,-99.99,WeatherLink 5.6,2013-10-07 00:00:00,
2013-10-06 20:30:00,68.1,59.9,29.64,South,180,3.0,15.0,75,0.00,,,-99.99,WeatherLink 5.6,2013-10-07 00:30:00,
2013-10-06 21:00:00,67.6,59.8,29.65,South,180,3.0,12.0,76,0.00,,,-99.99,WeatherLink 5.6,2013-10-07 01:00:00,
2013-10-06 21:30:00,67.3,59.8,29.65,South,180,2.0,14.0,77,0.00,,,-99.99,WeatherLink 5.6,2013-10-07 01:30:00,
2013-10-06 22:00:00,67.1,59.6,29.65,South,180,3.0,14.0,77,0.00,,,-99.99,WeatherLink 5.6,2013-10-07 02:00:00,
2013-10-06 22:30:00,66.8,60.1,29.63,South,180,3.0,14.0,79,0.00,,,-99.99,WeatherLink 5.6,2013-10-07 02:30:00,
2013-10-06 23:00:00,66.6,59.9,29.62,South,180,4.0,17.0,79,0.00,,,-99.99,WeatherLink 5.6,2013-10-07 03:00:00,
2013-10-06 23:30:00,66.7,60.3,29.62,South,180,6.0,24.0,80,0.00,,,-99.99,WeatherLink 5.6,2013-10-07 03:30:00,